Regional Weather Roundup
Issued by NWS

Home | Current Version | Previous Version | Graphics & Text | Print | Product List | Glossary On
Versions: 1 2 3 4 5 6 7 8 9 10 11 12 13 14 15 16 17 18 19 20 21 22 23 24 25 26 27 28 29 30 31 32 33 34 35 36 37 38 39 40 41 42 43 44 45 46 47 48 49 50
000
ASUS43 KDTX 260510
RWRMI
MICHIGAN HOURLY REGIONAL WEATHER ROUNDUP
NATIONAL WEATHER SERVICE DETROIT/PONTIAC MI
1200 AM EST WED NOV 26 2014

NOTE: "FAIR" INDICATES FEW OR NO CLOUDS BELOW 12,000 FEET WITH NO
SIGNIFICANT WEATHER AND/OR OBSTRUCTION TO VISIBILITY.

MIZ047>049-052>055-059>063-066>070-074>076-081>083-260600-
SOUTHEAST LOWER MICHIGAN

CITY           SKY/WX    TMP DP  RH WIND       PRES   REMARKS
ADRIAN         CLOUDY    28  20  71 W6        30.21S WCI  22
ALMA           CLOUDY    29  23  77 SW5       30.19S WCI  24
ANN ARBOR      CLOUDY    29  20  69 S3        30.19F
BAD AXE        CLOUDY    31  24  74 W5        30.19R WCI  26
CARO           CLOUDY    30  21  69 SW7       30.18S WCI  23
DETROIT CITY   CLOUDY    32  21  64 SW5       30.20F WCI  27
DETROIT        CLOUDY    30  21  69 SW3       30.21F
FLINT          CLOUDY    32  22  66 SW3       30.19S
GROSSE ILE     CLOUDY    30  21  69 SW3       30.20S
HILLSDALE      CLOUDY    26  21  79 CALM      30.17S
HOWELL         CLOUDY    28  22  76 S5        30.18S WCI  23

CITY           SKY/WX    TMP DP  RH WIND       PRES   REMARKS
JACKSON        CLOUDY    27  20  75 S5        30.18S WCI  22
LAMBERTVILLE   CLOUDY    30  23  74 CALM      30.22R
LANSING        CLOUDY    29  20  69 W6        30.20R WCI  23
LAPEER         CLOUDY    30  22  71 W6        30.19S WCI  24
MASON          CLOUDY    29  21  73 CALM      30.18S
MONROE         CLOUDY    28  23  80 CALM      30.20S
MT. CLEMENS    CLOUDY    31  22  69 CALM      30.18S
PONTIAC        FLURRIES  29  20  69 W6        30.17S WCI  23
PORT HOPE        N/A     31  23  72 VRB3      30.17R
PORT HURON     CLOUDY    30  21  69 W6        30.20S WCI  24
TRI CITIES     CLOUDY    31  21  66 W8        30.19S WCI  23
TROY           CLOUDY    32  23  69 W5        30.20F WCI  27
SAGINAW HB     CLOUDY    32  23  69 SW6       30.19R WCI  26
$$
MIZ043>046-050>051-056>058-064>065-071>073-077>080-260600-
SOUTHWEST LOWER MICHIGAN

CITY           SKY/WX    TMP DP  RH WIND       PRES   REMARKS
BATTLE CREEK   CLOUDY    29  19  66 W8        30.18S WCI  21
BENTON HARBOR  CLOUDY    25  18  74 S9        30.20S WCI  15
BIG RAPIDS     CLOUDY    27  24  88 CALM      30.16R
COLDWATER      CLOUDY    28  21  76 S3        30.18S
FREMONT        CLOUDY    27  24  89 CALM      30.17R
HOLLAND        CLOUDY    30  23  75 S9        30.19R WCI  22
GRAND RAPIDS   CLOUDY    29  23  78 S8        30.18S WCI  21
IONIA          CLOUDY    30  22  73 SW7       30.17S WCI  23
KALAMAZOO      CLOUDY    28  19  69 SW9       30.19S WCI  19
LUDINGTON      CLOUDY    29  24  80 CALM      30.17R
MARSHALL       CLOUDY    26  19  73 W3        30.18R
MOUNT PLEASANT CLOUDY    29  21  73 CALM      30.18R
MUSKEGON       CLOUDY    31  22  69 SW7       30.18S WCI  24
SOUTH HAVEN    CLOUDY    29  22  76 S8        30.19S WCI  21
$$
MIZ016>042-260600-
NORTHERN LOWER MICHIGAN

CITY           SKY/WX    TMP DP  RH WIND       PRES   REMARKS
ALPENA         CLOUDY    27  23  85 CALM      30.17R
BEAVER ISLAND  CLOUDY    27  21  77 CALM      30.14S
BELLAIRE       CLOUDY    28  23  81 S5        30.16R WCI  23
CADILLAC       CLOUDY    24  19  82 SW8       30.13R WCI  15
CHARLEVOIX     CLOUDY    28  22  79 CALM      30.17R
FRANKFORT      CLOUDY    27  22  81 S3        30.16R
GAYLORD        CLOUDY    24  20  84 SW5       30.11R WCI  18
GRAYLING       CLOUDY    26  21  83 CALM      30.14R
HARBOR SPRINGS CLOUDY    29  23  80 SW8       30.14R WCI  21
HOUGHTON LAKE  CLOUDY    25  18  74 W8        30.16R WCI  16
MANISTEE       CLOUDY    27  19  74 CALM      30.17R
OSCODA         CLOUDY    29  23  77 W5        30.18R WCI  24
PELLSTON       CLOUDY    26  23  88 CALM      30.14R
ROGERS CITY    CLOUDY    26  25  96 SW3       30.16R
TRAVERSE CITY  CLOUDY    27  22  81 CALM      30.15R
$$
MIZ007>008-015-260600-
EASTERN UPPER MICHIGAN

CITY           SKY/WX    TMP DP  RH WIND       PRES   REMARKS
KINROSS        CLOUDY    23  21  93 SW3       30.13S
MACKINAC ISLAN CLOUDY    26  20  77 N7        30.14R WCI  18
NEWBERRY       PTCLDY     8   7  96 SW5       30.13R WCI   0
S. S. MARIE    CLOUDY    24  19  81 SW9       30.10F WCI  14
MUNISING         N/A     10   4  76 S9        30.14R WCI  -3
$$
MIZ004>006-011>014-085-260600-
CENTRAL UPPER MICHIGAN

CITY           SKY/WX    TMP DP  RH WIND       PRES   REMARKS
MANISTIQUE     PTCLDY     8   6  92 CALM      30.14S
ESCANABA       MOCLDY    10   5  79 W7        30.14R WCI   0
MENOMINEE      CLOUDY    18  12  79 W3        30.15R
SAWYER-GWINN   CLEAR     -1  -4  85 CALM      30.10R FOG
$$
MIZ001>003-009>011-084-260600-
WESTERN UPPER MICHIGAN

CITY           SKY/WX    TMP DP  RH WIND       PRES   REMARKS
IRON MOUNTAIN  PTCLDY     1  -5  75 CALM      30.10R
HOUGHTON       CLOUDY    17  10  74 SW5       30.06S WCI  10
COPPER HARBOR    N/A     23  13  65 W7        30.08R WCI  15
IRONWOOD       CLEAR      3   1  92 CALM      30.04R
$$

ABBREVIATIONS USED IN REMARKS
   TC - TEMPERATURE IN CELSIUS
  WCI - WIND CHILL INDEX
   HX - HEAT INDEX
  VSB - VISIBILITY



USA.gov is the U.S. government's official web portal to all federal, state and local government web resources and services.